Location: Narragansett
(41.4496°N, 71.4488°W)
Time: 17:56:19
(UTC+00:00)

Nauka - Pass Details

Date: 25 September 2021
Orbit: 417 x 423 km, 51.6° (Epoch: 24 October)

Event Time Altitude Azimuth Distance (km) Brightness Sun altitude
Rises 01:08:48 0° 306° (NW) 2,367 ? -28.0°
Reaches altitude 10° 01:11:29 10° 329° (NNW) 1,504 ? -28.5°
Enters shadow 01:12:09 13° 339° (NNW) 1,348 ? -28.6°
